User: anonymous   Login
Location: Unspecified
(0.0000°N, 0.0000°E)
Time: 19:52:13
(UTC+00:00)
Language:

Optus B3 - Orbit

View from above orbital plane
View from above orbital plane
View from above satellite
View from above satellite

Ground track
Ground track

The orbit data is extracted from the following two-line orbital elements,

1 23227U 94055A   16336.54283249 -.00000073  00000-0  00000+0 0  9995
2 23227   7.0861  51.6187 0006937 209.6059 169.2157  1.00271444 81502
Epoch (UTC): 01 December 2016 13:01:40
Eccentricity: 0.0006937
inclination: 7.0861°
perigee height: 35757 km
apogee height: 35815 km
right ascension of ascending node: 51.6187°
argument of perigee: 209.6059°
revolutions per day: 1.00271444
mean anomaly at epoch: 169.2157°
orbit number at epoch: 8150

The dashed part of the orbit path shows where the satellite is in the earth's shadow,  

DLR